This is the latest recevied weather packets stored in our database for station/object DO6GZ-WX. If no packets are shown the sender has not sent any weather packets the latest 1 day(s).
| Time | Temp. | Humidity | Pressure | Rain* | Wind** | Luminosity | Snow |
|---|---|---|---|---|---|---|---|
| 1836274274 | 15° C | 10% | - | 0 mm | 1.34 m/s, 315° | - | - |
| 1778026831 | 11.11° C | 10% | - | 0.25 mm | 0.89 m/s, 135° | - | - |
| 1778026204 | 11.11° C | 10% | - | 1.78 mm | 0.45 m/s, 315° | - | - |
| 1778025576 | 11.11° C | 10% | - | 1.27 mm | 2.24 m/s, 90° | - | - |
| 1778024949 | 11.11° C | 10% | - | 1.02 mm | 0 m/s | - | - |
| 1778024322 | 11.11° C | 10% | - | 0.76 mm | 0 m/s | - | - |
| 1778023067 | 11.11° C | 10% | - | 0.25 mm | 0 m/s | - | - |
| 1778022440 | 11.11° C | 10% | - | 1.27 mm | 0 m/s | - | - |
| 1778021812 | 11.11° C | 10% | - | 1.02 mm | 0.89 m/s, 315° | - | - |
| 1778021185 | 11.11° C | 10% | - | 0.76 mm | 0.45 m/s, 135° | - | - |
| 1778019930 | 11.67° C | 10% | - | 0.25 mm | 0 m/s | - | - |
| 1778019303 | 11.67° C | 10% | - | 0.25 mm | 0 m/s | - | - |
| 1778018675 | 11.67° C | 10% | - | 0.76 mm | 0 m/s | - | - |
| 1778018048 | 11.67° C | 10% | - | 0.51 mm | 1.79 m/s, 315° | - | - |
| 1778017421 | 11.67° C | 10% | - | 0.25 mm | 0.45 m/s, 135° | - | - |
| 1778016166 | 11.67° C | 10% | - | 0.25 mm | 1.79 m/s, 315° | - | - |
| 1778014911 | 11.67° C | 10% | - | 0.51 mm | 0 m/s | - | - |
| 1778014284 | 12.22° C | 10% | - | 0.51 mm | 0 m/s | - | - |
| 1778013656 | 12.22° C | 10% | - | 0.25 mm | 0 m/s | - | - |
| 1778012402 | 12.78° C | 10% | - | 0 mm | 0.89 m/s, 0° | - | - |
| 1778011774 | 12.78° C | 10% | - | 0 mm | 0.45 m/s, 135° | - | - |
| 1778011147 | 12.78° C | 10% | - | 0 mm | 0.89 m/s, 315° | - | - |
| 1778009892 | 12.78° C | 10% | - | 0 mm | 0.89 m/s, 0° | - | - |
| 1778009265 | 12.78° C | 10% | - | 0 mm | 3.13 m/s, 45° | - | - |
| 1778008637 | 12.78° C | 10% | - | 0 mm | 0.45 m/s, 315° | - | - |
* Rain latest hour (hover to see other rain measurements)
** Current wind speed in m/s (hover to see current wind gust speed)